DELLINGR (RBLE)

Last updated on Fri Jun 11 2021 11:49:38 GMT+0000 (Coordinated Universal Time)

1 43021U 98067NJ 21161.58356675 .11371101 12760-4 85574-4 0 9994 2 43021 51.6049 216.0033 0005565 279.2361 80.8041 16.52395905203598

Satellite not in orbit